Location: Newark
(42.8481°N, 0.4872°E)
Time: 17:56:44
(UTC+00:00)

Vanguard 2 - Pass Details

Date: 29 October 2020
Orbit: 554 x 2937 km, 32.9° (Epoch: 27 November)

Event Time Altitude Azimuth Distance (km) Brightness Sun altitude
Rises 16:11:55 0° 179° (S) 4,539 11.8 6.3°
Reaches altitude 10° 16:17:10 10° 153° (SSE) 4,092 11.2 5.5°
Maximum altitude 16:21:40 13° 129° (SE) 4,248 11.1 4.7°
Drops below altitude 10° 16:26:52 10° 106° (ESE) 4,922 11.2 3.8°
Sets 16:34:44 0° 85° (E) 6,420 11.6 2.5°
